START_TIME,STEP,MOV.,M34,t_acc.,L5,t_acc.,L18,t_acc.,L14,t_acc.
1979-07-28 03:00:23.910 ,1,0,0.,12.0,0.,12.0,0.,12.0,0.,12.0
1979-07-28 03:00:35.910 ,1,0,0.,12.0,0.,12.0,0.,12.0,0.,12.0
1979-07-28 03:00:47.910 ,2,1,0.,12.0,0.,12.0,0.,12.0,0.,12.0
1979-07-28 03:00:59.910 ,2,1,0.,12.0,0.,12.0,0.,12.0,0.,12.0
1979-07-28 03:01:11.910 ,2,0,0.,12.0,0.,12.0,0.,12.0,0.,12.0
1979-07-28 03:01:23.910 ,2,0,1.,12.0,0.,12.0,0.,12.0,0.,12.0
1979-07-28 03:01:35.910 ,3,1,0.,12.0,0.,12.0,0.,12.0,0.,12.0
1979-07-28 03:01:47.910 ,3,1,0.,12.0,0.,12.0,0.,12.0,0.,12.0
1979-07-28 03:01:59.910 ,3,0,0.,12.0,0.,12.0,0.,12.0,0.,12.0
1979-07-28 03:02:11.910 ,3,0,0.,12.0,0.,12.0,0.,12.0,0.,12.0
1979-07-28 03:02:23.910 ,4,1,0.,12.0,0.,12.0,0.,12.0,0.,12.0
1979-07-28 03:02:35.910 ,4,1,0.,12.0,0.,12.0,0.,12.0,0.,12.0
1979-07-28 03:02:47.910 ,4,0,0.,12.0,0.,12.0,0.,12.0,0.,12.0
1979-07-28 03:02:59.910 ,4,0,0.,12.0,0.,12.0,0.,12.0,0.,12.0
1979-07-28 03:03:11.910 ,5,1,0.,12.0,0.,12.0,0.,12.0,0.,12.0
1979-07-28 03:03:23.910 ,5,1,0.,12.0,0.,12.0,0.,12.0,0.,12.0
1979-07-28 03:03:35.910 ,5,0,,0,,0,,0,,0
1979-07-28 03:03:47.910 ,5,0,,0,,0,,0,,0
1979-07-28 03:03:59.910 ,6,1,0.,12.0,0.,12.0,0.,12.0,0.,12.0
1979-07-28 03:04:11.910 ,6,1,0.,12.0,0.,12.0,0.,12.0,0.,12.0
1979-07-28 03:04:23.910 ,6,0,0.,12.0,0.,12.0,0.,12.0,0.,12.0
1979-07-28 03:04:35.910 ,6,0,0.,12.0,0.,12.0,0.,12.0,0.,12.0
1979-07-28 03:04:47.910 ,7,1,0.,12.0,0.,12.0,0.,12.0,0.,12.0
1979-07-28 03:04:59.910 ,7,1,0.,12.0,0.,12.0,0.,12.0,0.,12.0
1979-07-28 03:05:11.910 ,7,0,0.,12.0,0.,12.0,0.,12.0,0.,12.0
1979-07-28 03:05:23.910 ,7,0,0.,12.0,0.,12.0,0.,12.0,0.,12.0
1979-07-28 03:05:35.910 ,7,1,0.,12.0,0.,12.0,0.,12.0,0.,12.0
1979-07-28 03:05:47.910 ,7,1,0.,12.0,0.,12.0,0.,12.0,0.,12.0
1979-07-28 03:05:59.910 ,7,0,0.,12.0,0.,12.0,0.,12.0,0.,12.0
1979-07-28 03:06:11.910 ,7,0,0.,12.0,0.,12.0,0.,12.0,0.,12.0
1979-07-28 03:06:23.910 ,6,1,0.,12.0,0.,12.0,0.,12.0,0.,12.0
1979-07-28 03:06:35.910 ,6,1,0.,12.0,0.,12.0,0.,12.0,0.,12.0
1979-07-28 03:06:47.910 ,6,0,0.,12.0,0.,12.0,0.,12.0,0.,12.0
1979-07-28 03:06:59.910 ,6,0,0.,12.0,0.,12.0,0.,12.0,0.,12.0
1979-07-28 03:07:11.910 ,5,1,0.,12.0,0.,12.0,0.,12.0,0.,12.0
1979-07-28 03:07:23.910 ,5,1,0.,12.0,0.,12.0,0.,12.0,0.,12.0
1979-07-28 03:07:35.910 ,5,0,0.,12.0,0.,12.0,0.,12.0,0.,12.0
1979-07-28 03:07:47.910 ,5,0,0.,12.0,0.,12.0,0.,12.0,0.,12.0
1979-07-28 03:07:59.910 ,4,1,0.,12.0,0.,12.0,0.,12.0,0.,12.0
1979-07-28 03:08:11.910 ,4,1,0.,12.0,0.,12.0,0.,12.0,0.,12.0
1979-07-28 03:08:23.910 ,4,0,0.,12.0,0.,12.0,0.,12.0,0.,12.0
1979-07-28 03:08:35.910 ,4,0,0.,12.0,0.,12.0,0.,12.0,0.,12.0
1979-07-28 03:08:47.910 ,3,1,0.,12.0,0.,12.0,0.,12.0,0.,12.0
1979-07-28 03:08:59.910 ,3,1,0.,12.0,0.,12.0,0.,12.0,0.,12.0
1979-07-28 03:09:11.910 ,3,0,0.,12.0,0.,12.0,0.,12.0,0.,12.0
1979-07-28 03:09:23.910 ,3,0,0.,12.0,0.,12.0,0.,12.0,0.,12.0
1979-07-28 03:09:35.910 ,2,1,0.,12.0,0.,12.0,0.,12.0,0.,12.0
1979-07-28 03:09:47.910 ,2,1,0.,12.0,0.,12.0,0.,12.0,0.,12.0
1979-07-28 03:09:59.910 ,2,0,0.,12.0,0.,12.0,0.,12.0,0.,12.0
1979-07-28 03:10:11.910 ,2,0,0.,12.0,0.,12.0,0.,12.0,0.,12.0
1979-07-28 03:10:23.910 ,1,1,0.,12.0,0.,12.0,0.,12.0,0.,12.0
1979-07-28 03:10:35.910 ,1,1,0.,12.0,0.,12.0,0.,12.0,0.,12.0
1979-07-28 03:10:47.910 ,1,0,0.,12.0,0.,12.0,0.,12.0,0.,12.0
1979-07-28 03:10:59.910 ,1,0,0.,12.0,0.,12.0,0.,12.0,0.,12.0
1979-07-28 03:11:11.910 ,0,1,0.,12.0,0.,12.0,0.,12.0,0.,12.0
1979-07-28 03:11:23.910 ,0,1,0.,12.0,0.,12.0,0.,12.0,0.,12.0
1979-07-28 03:11:35.910 ,0,0,0.,12.0,0.,12.0,0.,12.0,0.,12.0
1979-07-28 03:11:47.910 ,0,0,1.,12.0,0.,12.0,0.,12.0,0.,12.0
1979-07-28 03:11:59.910 ,0,1,0.,12.0,0.,12.0,0.,12.0,0.,12.0
1979-07-28 03:12:11.910 ,0,1,0.,12.0,0.,12.0,0.,12.0,0.,12.0
1979-07-28 03:12:23.910 ,0,0,0.,12.0,0.,12.0,0.,12.0,0.,12.0
1979-07-28 03:12:35.910 ,0,0,0.,12.0,0.,12.0,0.,12.0,0.,12.0
1979-07-28 03:12:47.910 ,1,1,0.,12.0,0.,12.0,0.,12.0,0.,12.0
1979-07-28 03:12:59.910 ,1,1,0.,12.0,0.,12.0,0.,12.0,0.,12.0
1979-07-28 03:13:11.910 ,1,0,0.,12.0,0.,12.0,0.,12.0,0.,12.0
1979-07-28 03:13:23.910 ,1,0,0.,12.0,0.,12.0,0.,12.0,0.,12.0
1979-07-28 03:13:35.910 ,2,1,0.,12.0,0.,12.0,0.,12.0,0.,12.0
1979-07-28 03:13:47.910 ,2,1,0.,12.0,0.,12.0,0.,12.0,0.,12.0
1979-07-28 03:13:59.910 ,2,0,0.,12.0,0.,12.0,0.,12.0,0.,12.0
1979-07-28 03:14:11.910 ,2,0,0.,12.0,0.,12.0,0.,12.0,0.,12.0
1979-07-28 03:14:23.910 ,3,1,0.,12.0,0.,12.0,0.,12.0,0.,12.0
1979-07-28 03:14:35.910 ,3,1,0.,12.0,0.,12.0,0.,12.0,0.,12.0
1979-07-28 03:14:47.910 ,3,0,0.,12.0,0.,12.0,0.,12.0,0.,12.0
1979-07-28 03:14:59.910 ,3,0,0.,12.0,0.,12.0,0.,12.0,0.,12.0
1979-07-28 03:15:11.910 ,4,1,0.,12.0,0.,12.0,0.,12.0,0.,12.0
1979-07-28 03:15:23.910 ,4,1,0.,12.0,0.,12.0,0.,12.0,0.,12.0
1979-07-28 03:15:35.910 ,4,0,0.,12.0,0.,12.0,0.,12.0,0.,12.0
1979-07-28 03:15:47.910 ,4,0,0.,12.0,0.,12.0,0.,12.0,0.,12.0
1979-07-28 03:15:59.910 ,5,1,0.,12.0,0.,12.0,0.,12.0,0.,12.0
1979-07-28 03:16:11.910 ,5,1,0.,12.0,0.,12.0,0.,12.0,0.,12.0
1979-07-28 03:16:23.910 ,5,0,0.,12.0,0.,12.0,0.,12.0,0.,12.0
1979-07-28 03:16:35.910 ,5,0,0.,12.0,0.,12.0,0.,12.0,0.,12.0
1979-07-28 03:16:47.910 ,6,1,0.,12.0,0.,12.0,0.,12.0,0.,12.0
1979-07-28 03:16:59.910 ,6,1,0.,12.0,0.,12.0,0.,12.0,0.,12.0
1979-07-28 03:17:11.910 ,6,0,0.,12.0,0.,12.0,0.,12.0,0.,12.0
1979-07-28 03:17:23.910 ,6,0,0.,12.0,0.,12.0,0.,12.0,0.,12.0
1979-07-28 03:17:35.910 ,7,1,0.,12.0,0.,12.0,0.,12.0,0.,12.0
1979-07-28 03:17:47.910 ,7,1,0.,12.0,0.,12.0,0.,12.0,0.,12.0
1979-07-28 03:17:59.910 ,7,0,0.,12.0,0.,12.0,0.,12.0,0.,12.0
1979-07-28 03:18:11.910 ,7,0,0.,12.0,0.,12.0,0.,12.0,0.,12.0
1979-07-28 03:18:23.910 ,7,1,0.,12.0,0.,12.0,0.,12.0,0.,12.0
1979-07-28 03:18:35.910 ,7,1,0.,12.0,0.,12.0,0.,12.0,0.,12.0
1979-07-28 03:18:47.910 ,7,0,0.,12.0,0.,12.0,0.,12.0,0.,12.0
1979-07-28 03:18:59.910 ,7,0,0.,12.0,0.,12.0,0.,12.0,0.,12.0
1979-07-28 03:19:11.910 ,6,1,0.,12.0,0.,12.0,0.,12.0,0.,12.0
1979-07-28 03:19:23.910 ,6,1,0.,12.0,0.,12.0,0.,12.0,0.,12.0
1979-07-28 03:19:35.910 ,6,0,0.,12.0,0.,12.0,0.,12.0,0.,12.0
1979-07-28 03:19:47.910 ,6,0,0.,12.0,0.,12.0,0.,12.0,0.,12.0
1979-07-28 03:19:59.910 ,5,1,0.,12.0,0.,12.0,0.,12.0,0.,12.0
1979-07-28 03:20:11.910 ,5,1,0.,12.0,0.,12.0,0.,12.0,0.,12.0
1979-07-28 03:20:23.910 ,5,0,0.,12.0,0.,12.0,0.,12.0,0.,12.0
1979-07-28 03:20:35.910 ,5,0,0.,12.0,0.,12.0,0.,12.0,0.,12.0
1979-07-28 03:20:47.910 ,4,1,0.,12.0,0.,12.0,0.,12.0,0.,12.0
1979-07-28 03:20:59.910 ,4,1,0.,12.0,0.,12.0,0.,12.0,0.,12.0
1979-07-28 03:21:11.910 ,4,0,0.,12.0,0.,12.0,0.,12.0,0.,12.0
1979-07-28 03:21:23.910 ,4,0,0.,12.0,0.,12.0,0.,12.0,0.,12.0
1979-07-28 03:21:35.910 ,3,1,0.,12.0,0.,12.0,0.,12.0,0.,12.0
1979-07-28 03:21:47.910 ,3,1,0.,12.0,0.,12.0,0.,12.0,0.,12.0
1979-07-28 03:21:59.910 ,3,0,0.,12.0,0.,12.0,0.,12.0,0.,12.0
1979-07-28 03:22:11.910 ,3,0,0.,12.0,0.,12.0,0.,12.0,0.,12.0
1979-07-28 03:22:23.910 ,2,1,0.,12.0,0.,12.0,0.,12.0,0.,12.0
1979-07-28 03:22:35.910 ,2,1,0.,12.0,0.,12.0,0.,12.0,0.,12.0
1979-07-28 03:22:47.910 ,2,0,0.,12.0,0.,12.0,0.,12.0,0.,12.0
1979-07-28 03:22:59.910 ,2,0,0.,12.0,0.,12.0,0.,12.0,0.,12.0
1979-07-28 03:23:11.910 ,0,0,0.,12.0,0.,12.0,0.,12.0,0.,12.0
1979-07-28 03:23:23.910 ,0,0,0.,12.0,0.,12.0,0.,12.0,0.,12.0
1979-07-28 03:23:35.910 ,0,0,,0,,0,,0,,0
1979-07-28 03:23:47.910 ,0,0,,0,,0,,0,,0
1979-07-28 03:24:43.710 ,0,0,,0,,0,,0,,0
1979-07-28 03:24:55.710 ,0,0,,0,,0,,0,,0
1979-07-28 03:24:47.910 ,0,1,0.,12.0,0.,12.0,0.,12.0,0.,12.0
1979-07-28 03:24:59.910 ,0,1,0.,12.0,0.,12.0,0.,12.0,0.,12.0
1979-07-28 03:25:11.910 ,0,0,0.,12.0,0.,12.0,0.,12.0,0.,12.0
1979-07-28 03:25:23.910 ,0,0,0.,12.0,0.,12.0,0.,12.0,0.,12.0
1979-07-28 03:25:35.910 ,1,1,0.,12.0,0.,12.0,0.,12.0,0.,12.0
1979-07-28 03:25:47.910 ,1,1,0.,12.0,0.,12.0,0.,12.0,0.,12.0
1979-07-28 03:25:59.910 ,1,0,0.,12.0,0.,12.0,0.,12.0,0.,12.0
1979-07-28 03:26:11.910 ,1,0,0.,12.0,0.,12.0,0.,12.0,1.,12.0
1979-07-28 03:26:23.910 ,2,1,0.,12.0,0.,12.0,0.,12.0,0.,12.0
1979-07-28 03:26:35.910 ,2,1,0.,12.0,0.,12.0,0.,12.0,0.,12.0
1979-07-28 03:26:47.910 ,2,0,0.,12.0,0.,12.0,0.,12.0,0.,12.0
1979-07-28 03:26:59.910 ,2,0,1.,12.0,0.,12.0,0.,12.0,0.,12.0
1979-07-28 03:27:11.910 ,3,1,0.,12.0,0.,12.0,0.,12.0,0.,12.0
1979-07-28 03:27:23.910 ,3,1,0.,12.0,0.,12.0,0.,12.0,0.,12.0
1979-07-28 03:27:35.910 ,3,0,0.,12.0,0.,12.0,0.,12.0,0.,12.0
1979-07-28 03:27:47.910 ,3,0,0.,12.0,0.,12.0,0.,12.0,0.,12.0
1979-07-28 03:27:59.910 ,4,1,0.,12.0,0.,12.0,0.,12.0,0.,12.0
1979-07-28 03:28:11.910 ,4,1,0.,12.0,0.,12.0,0.,12.0,0.,12.0
1979-07-28 03:28:23.910 ,4,0,0.,12.0,0.,12.0,0.,12.0,0.,12.0
1979-07-28 03:28:35.910 ,4,0,0.,12.0,0.,12.0,0.,12.0,0.,12.0
1979-07-28 03:28:47.910 ,5,1,0.,12.0,0.,12.0,0.,12.0,0.,12.0
1979-07-28 03:28:59.910 ,5,1,0.,12.0,0.,12.0,0.,12.0,0.,12.0
1979-07-28 03:29:11.910 ,5,0,0.,12.0,0.,12.0,0.,12.0,0.,12.0
1979-07-28 03:29:23.910 ,5,0,0.,12.0,0.,12.0,0.,12.0,0.,12.0
1979-07-28 03:29:35.910 ,6,1,0.,12.0,0.,12.0,0.,12.0,0.,12.0
1979-07-28 03:29:47.910 ,6,1,0.,12.0,0.,12.0,0.,12.0,0.,12.0
1979-07-28 03:29:59.910 ,6,0,0.,12.0,0.,12.0,0.,12.0,0.,12.0
1979-07-28 03:30:11.910 ,6,0,0.,12.0,0.,12.0,0.,12.0,0.,12.0
1979-07-28 03:30:23.910 ,7,0,0.,12.0,0.,12.0,0.,12.0,0.,12.0
1979-07-28 03:30:35.910 ,7,0,0.,12.0,0.,12.0,0.,12.0,0.,12.0
1979-07-28 03:30:47.910 ,7,0,0.,12.0,0.,12.0,0.,12.0,0.,12.0
1979-07-28 03:30:59.910 ,7,0,0.,12.0,0.,12.0,0.,12.0,0.,12.0
1979-07-28 03:31:11.910 ,4,1,0.,12.0,0.,12.0,0.,12.0,0.,12.0
1979-07-28 03:31:23.910 ,4,1,0.,12.0,0.,12.0,0.,12.0,0.,12.0
1979-07-28 03:31:35.910 ,0,1,0.,12.0,0.,12.0,0.,12.0,0.,12.0
1979-07-28 03:31:47.910 ,0,1,0.,12.0,0.,12.0,0.,12.0,0.,12.0
1979-07-28 03:31:59.910 ,3,1,0.,12.0,0.,12.0,0.,12.0,0.,12.0
1979-07-28 03:32:11.910 ,3,1,0.,12.0,0.,12.0,0.,12.0,0.,12.0
1979-07-28 03:32:23.910 ,7,1,0.,12.0,0.,12.0,0.,12.0,0.,12.0
1979-07-28 03:32:35.910 ,7,1,0.,12.0,0.,12.0,0.,12.0,0.,12.0
1979-07-28 03:32:47.910 ,4,1,0.,12.0,0.,12.0,0.,12.0,0.,12.0
1979-07-28 03:32:59.910 ,4,1,0.,12.0,0.,12.0,0.,12.0,0.,12.0
1979-07-28 03:33:11.910 ,0,1,0.,12.0,0.,12.0,0.,12.0,0.,12.0
1979-07-28 03:33:23.910 ,0,1,0.,12.0,0.,12.0,0.,12.0,0.,12.0
1979-07-28 03:33:35.910 ,3,1,0.,12.0,0.,12.0,0.,12.0,0.,12.0
1979-07-28 03:33:47.910 ,3,1,0.,12.0,0.,12.0,0.,12.0,0.,12.0
1979-07-28 03:33:59.910 ,7,1,0.,12.0,0.,12.0,0.,12.0,0.,12.0
1979-07-28 03:34:11.910 ,7,1,0.,12.0,0.,12.0,0.,12.0,0.,12.0
1979-07-28 03:34:23.910 ,4,1,0.,12.0,0.,12.0,0.,12.0,0.,12.0
1979-07-28 03:34:35.910 ,4,1,0.,12.0,0.,12.0,0.,12.0,0.,12.0
1979-07-28 03:34:47.910 ,0,1,0.,12.0,0.,12.0,0.,12.0,0.,12.0
1979-07-28 03:34:59.910 ,0,1,0.,12.0,0.,12.0,0.,12.0,0.,12.0
1979-07-28 03:35:11.910 ,3,1,0.,12.0,0.,12.0,0.,12.0,0.,12.0
1979-07-28 03:35:23.910 ,3,1,0.,12.0,0.,12.0,0.,12.0,0.,12.0
1979-07-28 03:35:35.910 ,7,1,1.,12.0,0.,12.0,0.,12.0,0.,12.0
1979-07-28 03:35:47.910 ,7,1,0.,12.0,0.,12.0,0.,12.0,0.,12.0
1979-07-28 03:35:59.910 ,4,1,0.,12.0,0.,12.0,0.,12.0,0.,12.0
1979-07-28 03:36:11.910 ,4,1,0.,12.0,0.,12.0,0.,12.0,0.,12.0
1979-07-28 03:36:23.910 ,0,1,0.,12.0,0.,12.0,0.,12.0,0.,12.0
1979-07-28 03:36:35.910 ,0,1,0.,12.0,0.,12.0,0.,12.0,0.,12.0
1979-07-28 03:36:47.910 ,3,1,0.,12.0,0.,12.0,0.,12.0,0.,12.0
1979-07-28 03:36:59.910 ,3,1,0.,12.0,0.,12.0,0.,12.0,0.,12.0
1979-07-28 03:37:11.910 ,7,1,0.,12.0,0.,12.0,0.,12.0,0.,12.0
1979-07-28 03:37:23.910 ,7,1,0.,12.0,0.,12.0,0.,12.0,0.,12.0
1979-07-28 03:37:35.910 ,4,1,0.,12.0,0.,12.0,0.,12.0,0.,12.0
1979-07-28 03:37:47.910 ,4,1,0.,12.0,0.,12.0,0.,12.0,0.,12.0
1979-07-28 03:37:59.910 ,0,1,0.,12.0,0.,12.0,0.,12.0,0.,12.0
1979-07-28 03:38:11.910 ,0,1,0.,12.0,0.,12.0,0.,12.0,0.,12.0
1979-07-28 03:38:23.910 ,3,1,0.,12.0,0.,12.0,0.,12.0,0.,12.0
1979-07-28 03:38:35.910 ,3,1,0.,12.0,0.,12.0,0.,12.0,0.,12.0
1979-07-28 03:38:47.910 ,7,1,0.,12.0,0.,12.0,0.,12.0,0.,12.0
1979-07-28 03:38:59.910 ,7,1,0.,12.0,0.,12.0,0.,12.0,0.,12.0
1979-07-28 03:39:11.910 ,4,1,0.,12.0,0.,12.0,0.,12.0,0.,12.0
1979-07-28 03:39:23.910 ,4,1,0.,12.0,0.,12.0,0.,12.0,0.,12.0
1979-07-28 03:39:35.910 ,0,1,0.,12.0,0.,12.0,0.,12.0,0.,12.0
1979-07-28 03:39:47.910 ,0,1,0.,12.0,0.,12.0,0.,12.0,0.,12.0
1979-07-28 03:39:59.910 ,3,1,0.,12.0,0.,12.0,0.,12.0,0.,12.0
1979-07-28 03:40:11.910 ,3,1,0.,12.0,0.,12.0,0.,12.0,0.,12.0
1979-07-28 03:40:23.910 ,7,1,0.,12.0,0.,12.0,0.,12.0,0.,12.0
1979-07-28 03:40:35.910 ,7,1,0.,12.0,0.,12.0,0.,12.0,0.,12.0
1979-07-28 03:40:47.910 ,4,1,0.,12.0,0.,12.0,0.,12.0,0.,12.0
1979-07-28 03:40:59.910 ,4,1,0.,12.0,0.,12.0,0.,12.0,0.,12.0
1979-07-28 03:41:11.910 ,0,1,0.,12.0,0.,12.0,0.,12.0,0.,12.0
1979-07-28 03:41:23.910 ,0,1,0.,12.0,0.,12.0,0.,12.0,0.,12.0
1979-07-28 03:41:35.910 ,0,0,0.,12.0,0.,12.0,0.,12.0,0.,12.0
1979-07-28 03:41:47.910 ,0,0,0.,12.0,0.,12.0,0.,12.0,0.,12.0
1979-07-28 03:41:59.910 ,0,0,0.,12.0,0.,12.0,0.,12.0,0.,12.0
1979-07-28 03:42:11.910 ,0,0,0.,12.0,0.,12.0,0.,12.0,0.,12.0
1979-07-28 03:42:23.910 ,5,1,0.,12.0,0.,12.0,0.,12.0,0.,12.0
1979-07-28 03:42:35.910 ,5,1,0.,12.0,0.,12.0,0.,12.0,0.,12.0
1979-07-28 03:42:47.910 ,5,0,0.,12.0,0.,12.0,0.,12.0,0.,12.0
1979-07-28 03:42:59.910 ,5,0,0.,12.0,0.,12.0,0.,12.0,0.,12.0
1979-07-28 03:43:11.910 ,4,1,0.,12.0,0.,12.0,0.,12.0,0.,12.0
1979-07-28 03:43:23.910 ,4,1,0.,12.0,0.,12.0,0.,12.0,0.,12.0
1979-07-28 03:43:35.910 ,4,0,0.,12.0,0.,12.0,0.,12.0,0.,12.0
1979-07-28 03:43:47.910 ,4,0,0.,12.0,0.,12.0,0.,12.0,0.,12.0
1979-07-28 03:43:59.910 ,3,1,0.,12.0,0.,12.0,0.,12.0,0.,12.0
1979-07-28 03:44:11.910 ,3,1,0.,12.0,0.,12.0,0.,12.0,0.,12.0
1979-07-28 03:44:23.910 ,3,0,0.,12.0,0.,12.0,0.,12.0,0.,12.0
1979-07-28 03:44:35.910 ,3,0,0.,12.0,0.,12.0,0.,12.0,0.,12.0
1979-07-28 03:44:47.910 ,2,1,0.,12.0,0.,12.0,0.,12.0,0.,12.0
1979-07-28 03:44:59.910 ,2,1,0.,12.0,1.,12.0,0.,12.0,0.,12.0
1979-07-28 03:45:11.910 ,2,0,0.,12.0,0.,12.0,0.,12.0,0.,12.0
1979-07-28 03:45:23.910 ,2,0,0.,12.0,0.,12.0,0.,12.0,0.,12.0
1979-07-28 03:45:35.910 ,1,1,0.,12.0,0.,12.0,0.,12.0,0.,12.0
1979-07-28 03:45:47.910 ,1,1,0.,12.0,0.,12.0,0.,12.0,0.,12.0
1979-07-28 03:45:59.910 ,1,0,0.,12.0,0.,12.0,0.,12.0,0.,12.0
1979-07-28 03:46:11.910 ,1,0,0.,12.0,0.,12.0,0.,12.0,0.,12.0
1979-07-28 03:46:23.910 ,0,1,0.,12.0,0.,12.0,0.,12.0,0.,12.0
1979-07-28 03:46:35.910 ,0,1,0.,12.0,0.,12.0,0.,12.0,0.,12.0
1979-07-28 03:46:47.910 ,0,0,0.,12.0,0.,12.0,0.,12.0,0.,12.0
1979-07-28 03:46:59.910 ,0,0,1.,12.0,0.,12.0,0.,12.0,0.,12.0
1979-07-28 03:47:11.910 ,0,1,0.,12.0,0.,12.0,0.,12.0,0.,12.0
1979-07-28 03:47:23.910 ,0,1,0.,12.0,0.,12.0,0.,12.0,0.,12.0
1979-07-28 03:47:35.910 ,0,0,0.,12.0,0.,12.0,0.,12.0,0.,12.0
1979-07-28 03:47:47.910 ,0,0,0.,12.0,0.,12.0,0.,12.0,0.,12.0
1979-07-28 03:47:59.910 ,1,1,0.,12.0,0.,12.0,0.,12.0,0.,12.0
1979-07-28 03:48:11.910 ,1,1,0.,12.0,0.,12.0,0.,12.0,0.,12.0
1979-07-28 03:48:23.910 ,1,0,1.,12.0,0.,12.0,0.,12.0,0.,12.0
1979-07-28 03:48:35.910 ,1,0,0.,12.0,0.,12.0,0.,12.0,0.,12.0
1979-07-28 03:48:47.910 ,2,1,0.,12.0,0.,12.0,0.,12.0,0.,12.0
1979-07-28 03:48:59.910 ,2,1,0.,12.0,0.,12.0,0.,12.0,0.,12.0
1979-07-28 03:49:11.910 ,2,0,0.,12.0,0.,12.0,0.,12.0,0.,12.0
1979-07-28 03:49:23.910 ,2,0,0.,12.0,0.,12.0,0.,12.0,0.,12.0
1979-07-28 03:49:35.910 ,3,1,0.,12.0,0.,12.0,0.,12.0,0.,12.0
1979-07-28 03:49:47.910 ,3,1,0.,12.0,0.,12.0,0.,12.0,0.,12.0
1979-07-28 03:49:59.910 ,3,0,0.,12.0,0.,12.0,0.,12.0,0.,12.0
1979-07-28 03:50:11.910 ,3,0,0.,12.0,0.,12.0,0.,12.0,0.,12.0
1979-07-28 03:50:23.910 ,4,1,0.,12.0,0.,12.0,0.,12.0,0.,12.0
1979-07-28 03:50:35.910 ,4,1,0.,12.0,0.,12.0,0.,12.0,0.,12.0
1979-07-28 03:50:47.910 ,4,0,0.,12.0,0.,12.0,0.,12.0,0.,12.0
1979-07-28 03:50:59.910 ,4,0,0.,12.0,0.,12.0,0.,12.0,0.,12.0
1979-07-28 03:51:11.910 ,5,1,0.,12.0,0.,12.0,0.,12.0,0.,12.0
1979-07-28 03:51:23.910 ,5,1,0.,12.0,0.,12.0,0.,12.0,0.,12.0
1979-07-28 03:51:35.910 ,5,0,0.,12.0,0.,12.0,0.,12.0,0.,12.0
1979-07-28 03:51:47.910 ,5,0,0.,12.0,0.,12.0,0.,12.0,0.,12.0
1979-07-28 03:51:59.910 ,6,1,0.,12.0,0.,12.0,0.,12.0,0.,12.0
1979-07-28 03:52:11.910 ,6,1,0.,12.0,0.,12.0,0.,12.0,0.,12.0
1979-07-28 03:52:23.910 ,6,0,0.,12.0,0.,12.0,0.,12.0,0.,12.0
1979-07-28 03:52:35.910 ,6,0,0.,12.0,0.,12.0,0.,12.0,0.,12.0
1979-07-28 03:52:47.910 ,7,1,0.,12.0,0.,12.0,0.,12.0,0.,12.0
1979-07-28 03:52:59.910 ,7,1,0.,12.0,0.,12.0,0.,12.0,0.,12.0
1979-07-28 03:53:11.910 ,7,0,0.,12.0,0.,12.0,0.,12.0,0.,12.0
1979-07-28 03:53:23.910 ,7,0,0.,12.0,0.,12.0,0.,12.0,0.,12.0
1979-07-28 03:53:35.910 ,7,1,0.,12.0,0.,12.0,0.,12.0,0.,12.0
1979-07-28 03:53:47.910 ,7,1,0.,12.0,0.,12.0,0.,12.0,0.,12.0
1979-07-28 03:53:59.910 ,7,0,0.,12.0,0.,12.0,0.,12.0,0.,12.0
1979-07-28 03:54:11.910 ,7,0,0.,12.0,0.,12.0,0.,12.0,0.,12.0
1979-07-28 03:54:23.910 ,6,1,0.,12.0,0.,12.0,0.,12.0,0.,12.0
1979-07-28 03:54:35.910 ,6,1,0.,12.0,0.,12.0,0.,12.0,0.,12.0
1979-07-28 03:54:47.910 ,6,0,0.,12.0,0.,12.0,0.,12.0,0.,12.0
1979-07-28 03:54:59.910 ,6,0,0.,12.0,0.,12.0,0.,12.0,0.,12.0
1979-07-28 03:55:11.910 ,5,1,0.,12.0,0.,12.0,0.,12.0,0.,12.0
1979-07-28 03:55:23.910 ,5,1,0.,12.0,0.,12.0,0.,12.0,0.,12.0
1979-07-28 03:55:35.910 ,5,0,0.,12.0,0.,12.0,0.,12.0,0.,12.0
1979-07-28 03:55:47.910 ,5,0,0.,12.0,0.,12.0,0.,12.0,0.,12.0
1979-07-28 03:55:59.910 ,4,1,0.,12.0,0.,12.0,0.,12.0,0.,12.0
1979-07-28 03:56:11.910 ,4,1,0.,12.0,0.,12.0,0.,12.0,0.,12.0
1979-07-28 03:56:23.910 ,4,0,0.,12.0,0.,12.0,0.,12.0,0.,12.0
1979-07-28 03:56:35.910 ,4,0,0.,12.0,0.,12.0,0.,12.0,0.,12.0
1979-07-28 03:56:47.910 ,3,1,0.,12.0,0.,12.0,0.,12.0,0.,12.0
1979-07-28 03:56:59.910 ,3,1,0.,12.0,0.,12.0,0.,12.0,0.,12.0
1979-07-28 03:57:11.910 ,3,0,0.,12.0,0.,12.0,0.,12.0,0.,12.0
1979-07-28 03:57:23.910 ,3,0,0.,12.0,0.,12.0,0.,12.0,0.,12.0
1979-07-28 03:57:35.910 ,2,1,0.,12.0,0.,12.0,0.,12.0,0.,12.0
1979-07-28 03:57:47.910 ,2,1,0.,12.0,0.,12.0,0.,12.0,0.,12.0
1979-07-28 03:57:59.910 ,2,0,0.,12.0,0.,12.0,0.,12.0,0.,12.0
1979-07-28 03:58:11.910 ,2,0,0.,12.0,0.,12.0,0.,12.0,0.,12.0
1979-07-28 03:58:23.910 ,1,1,0.,12.0,0.,12.0,0.,12.0,0.,12.0
1979-07-28 03:58:35.910 ,1,1,0.,12.0,0.,12.0,0.,12.0,0.,12.0
1979-07-28 03:58:47.910 ,1,0,0.,12.0,0.,12.0,0.,12.0,0.,12.0
1979-07-28 03:58:59.910 ,1,0,0.,12.0,0.,12.0,0.,12.0,0.,12.0
1979-07-28 03:59:11.910 ,0,1,0.,12.0,0.,12.0,0.,12.0,0.,12.0
1979-07-28 03:59:23.910 ,0,1,0.,12.0,0.,12.0,0.,12.0,0.,12.0
1979-07-28 03:59:35.910 ,0,0,0.,12.0,0.,12.0,0.,12.0,0.,12.0
1979-07-28 03:59:47.910 ,0,0,0.,12.0,0.,12.0,0.,12.0,0.,12.0
1979-07-28 03:59:59.910 ,0,1,0.,12.0,0.,12.0,0.,12.0,0.,12.0
1979-07-28 04:00:11.910 ,0,1,0.,12.0,0.,12.0,0.,12.0,0.,12.0
1979-07-28 04:00:23.910 ,0,0,0.,12.0,0.,12.0,0.,12.0,0.,12.0
1979-07-28 04:00:35.910 ,0,0,0.,12.0,0.,12.0,0.,12.0,0.,12.0
1979-07-28 04:00:47.910 ,1,1,0.,12.0,0.,12.0,0.,12.0,0.,12.0
1979-07-28 04:00:59.910 ,1,1,0.,12.0,0.,12.0,0.,12.0,0.,12.0
1979-07-28 04:01:11.910 ,1,0,0.,12.0,0.,12.0,0.,12.0,0.,12.0
1979-07-28 04:01:23.910 ,1,0,0.,12.0,0.,12.0,0.,12.0,0.,12.0
1979-07-28 04:01:35.910 ,2,1,0.,12.0,0.,12.0,0.,12.0,0.,12.0
1979-07-28 04:01:47.910 ,2,1,0.,12.0,0.,12.0,0.,12.0,0.,12.0
1979-07-28 04:01:59.910 ,2,0,0.,12.0,0.,12.0,0.,12.0,0.,12.0
1979-07-28 04:02:11.910 ,2,0,0.,12.0,0.,12.0,0.,12.0,0.,12.0
1979-07-28 04:02:23.910 ,3,1,0.,12.0,0.,12.0,0.,12.0,0.,12.0
1979-07-28 04:02:35.910 ,3,1,0.,12.0,0.,12.0,0.,12.0,0.,12.0
1979-07-28 04:02:47.910 ,3,0,0.,12.0,0.,12.0,0.,12.0,0.,12.0
1979-07-28 04:02:59.910 ,3,0,0.,12.0,0.,12.0,0.,12.0,0.,12.0
1979-07-28 04:03:11.910 ,4,1,0.,12.0,0.,12.0,0.,12.0,0.,12.0
1979-07-28 04:03:23.910 ,4,1,0.,12.0,0.,12.0,0.,12.0,0.,12.0
1979-07-28 04:03:35.910 ,4,0,0.,12.0,0.,12.0,0.,12.0,0.,12.0
1979-07-28 04:03:47.910 ,4,0,0.,12.0,0.,12.0,0.,12.0,0.,12.0
1979-07-28 04:03:59.910 ,5,1,0.,12.0,0.,12.0,0.,12.0,0.,12.0
1979-07-28 04:04:11.910 ,5,1,0.,12.0,0.,12.0,0.,12.0,0.,12.0
1979-07-28 04:04:23.910 ,5,0,0.,12.0,0.,12.0,0.,12.0,0.,12.0
1979-07-28 04:04:35.910 ,5,0,0.,12.0,0.,12.0,0.,12.0,0.,12.0
1979-07-28 04:04:47.910 ,6,1,0.,12.0,0.,12.0,0.,12.0,0.,12.0
1979-07-28 04:04:59.910 ,6,1,0.,12.0,0.,12.0,0.,12.0,0.,12.0
1979-07-28 04:05:11.910 ,6,0,0.,12.0,0.,12.0,0.,12.0,0.,12.0
1979-07-28 04:05:23.910 ,6,0,0.,12.0,0.,12.0,0.,12.0,0.,12.0
1979-07-28 04:05:35.910 ,7,1,0.,12.0,0.,12.0,0.,12.0,0.,12.0
1979-07-28 04:05:47.910 ,7,1,0.,12.0,0.,12.0,0.,12.0,0.,12.0
1979-07-28 04:05:59.910 ,7,0,0.,12.0,0.,12.0,0.,12.0,0.,12.0
1979-07-28 04:06:11.910 ,7,0,0.,12.0,0.,12.0,0.,12.0,0.,12.0
1979-07-28 04:06:23.910 ,7,1,0.,12.0,0.,12.0,0.,12.0,0.,12.0
1979-07-28 04:06:35.910 ,7,1,0.,12.0,0.,12.0,0.,12.0,0.,12.0
1979-07-28 04:06:47.910 ,7,0,0.,12.0,0.,12.0,0.,12.0,0.,12.0
1979-07-28 04:06:59.910 ,7,0,0.,12.0,0.,12.0,0.,12.0,0.,12.0
1979-07-28 04:07:11.910 ,6,1,0.,12.0,0.,12.0,0.,12.0,0.,12.0
1979-07-28 04:07:23.910 ,6,1,0.,12.0,0.,12.0,0.,12.0,0.,12.0
1979-07-28 04:07:35.910 ,6,0,0.,12.0,0.,12.0,0.,12.0,0.,12.0
1979-07-28 04:07:47.910 ,6,0,0.,12.0,0.,12.0,0.,12.0,0.,12.0
1979-07-28 04:07:59.910 ,5,1,0.,12.0,0.,12.0,0.,12.0,0.,12.0
1979-07-28 04:08:11.910 ,5,1,0.,12.0,0.,12.0,0.,12.0,0.,12.0
1979-07-28 04:08:23.910 ,5,0,0.,12.0,0.,12.0,0.,12.0,0.,12.0
1979-07-28 04:08:35.910 ,5,0,0.,12.0,0.,12.0,0.,12.0,0.,12.0
1979-07-28 04:08:47.910 ,4,1,0.,12.0,0.,12.0,0.,12.0,0.,12.0
1979-07-28 04:08:59.910 ,4,1,0.,12.0,0.,12.0,0.,12.0,0.,12.0
1979-07-28 04:09:11.910 ,4,0,0.,12.0,0.,12.0,0.,12.0,0.,12.0
1979-07-28 04:09:23.910 ,4,0,0.,12.0,0.,12.0,0.,12.0,0.,12.0
1979-07-28 04:09:35.910 ,3,1,0.,12.0,0.,12.0,0.,12.0,0.,12.0
1979-07-28 04:09:47.910 ,3,1,0.,12.0,0.,12.0,0.,12.0,0.,12.0
1979-07-28 04:09:59.910 ,3,0,0.,12.0,0.,12.0,0.,12.0,0.,12.0
1979-07-28 04:10:11.910 ,3,0,0.,12.0,0.,12.0,0.,12.0,0.,12.0
1979-07-28 04:10:23.910 ,2,1,0.,12.0,0.,12.0,0.,12.0,0.,12.0
1979-07-28 04:10:35.910 ,2,1,0.,12.0,0.,12.0,0.,12.0,0.,12.0
1979-07-28 04:10:47.910 ,2,0,0.,12.0,0.,12.0,0.,12.0,0.,12.0
1979-07-28 04:10:59.910 ,2,0,0.,12.0,0.,12.0,0.,12.0,0.,12.0
1979-07-28 04:11:11.910 ,1,1,0.,12.0,0.,12.0,0.,12.0,0.,12.0
1979-07-28 04:11:23.910 ,1,1,0.,12.0,0.,12.0,0.,12.0,0.,12.0
1979-07-28 04:11:35.910 ,1,0,0.,12.0,0.,12.0,0.,12.0,0.,12.0
1979-07-28 04:11:47.910 ,1,0,0.,12.0,0.,12.0,0.,12.0,0.,12.0
1979-07-28 04:11:59.910 ,0,1,0.,12.0,0.,12.0,0.,12.0,0.,12.0
1979-07-28 04:12:11.910 ,0,1,0.,12.0,0.,12.0,0.,12.0,0.,12.0
1979-07-28 04:12:23.910 ,0,0,0.,12.0,0.,12.0,0.,12.0,0.,12.0
1979-07-28 04:12:35.910 ,0,0,0.,12.0,0.,12.0,0.,12.0,0.,12.0
1979-07-28 04:12:47.910 ,0,1,0.,12.0,0.,12.0,0.,12.0,0.,12.0
1979-07-28 04:12:59.910 ,0,1,0.,12.0,0.,12.0,0.,12.0,0.,12.0
1979-07-28 04:13:11.910 ,0,0,0.,12.0,0.,12.0,0.,12.0,0.,12.0
1979-07-28 04:13:23.910 ,0,0,0.,12.0,0.,12.0,0.,12.0,0.,12.0
1979-07-28 04:13:35.910 ,1,1,0.,12.0,0.,12.0,0.,12.0,0.,12.0
1979-07-28 04:13:47.910 ,1,1,0.,12.0,0.,12.0,0.,12.0,0.,12.0
1979-07-28 04:13:59.910 ,1,0,0.,12.0,0.,12.0,0.,12.0,0.,12.0
1979-07-28 04:14:11.910 ,1,0,0.,12.0,0.,12.0,0.,12.0,0.,12.0
1979-07-28 04:14:23.910 ,2,1,0.,12.0,0.,12.0,0.,12.0,0.,12.0
1979-07-28 04:14:35.910 ,2,1,0.,12.0,0.,12.0,0.,12.0,0.,12.0
1979-07-28 04:14:47.910 ,2,0,0.,12.0,0.,12.0,0.,12.0,0.,12.0
1979-07-28 04:14:59.910 ,2,0,0.,12.0,0.,12.0,0.,12.0,0.,12.0
1979-07-28 04:15:11.910 ,3,1,0.,12.0,0.,12.0,0.,12.0,0.,12.0
1979-07-28 04:15:23.910 ,3,1,0.,12.0,0.,12.0,0.,12.0,0.,12.0
1979-07-28 04:15:35.910 ,3,0,0.,12.0,0.,12.0,0.,12.0,0.,12.0
1979-07-28 04:15:47.910 ,3,0,0.,12.0,0.,12.0,0.,12.0,0.,12.0
1979-07-28 04:15:59.910 ,4,1,0.,12.0,0.,12.0,0.,12.0,0.,12.0
1979-07-28 04:16:11.910 ,4,1,0.,12.0,0.,12.0,0.,12.0,0.,12.0
1979-07-28 04:16:23.910 ,4,0,0.,12.0,0.,12.0,0.,12.0,0.,12.0
1979-07-28 04:16:35.910 ,4,0,1.,12.0,0.,12.0,0.,12.0,0.,12.0
1979-07-28 04:16:47.910 ,5,1,0.,12.0,0.,12.0,0.,12.0,0.,12.0
1979-07-28 04:16:59.910 ,5,1,0.,12.0,0.,12.0,0.,12.0,0.,12.0
1979-07-28 04:17:11.910 ,5,0,0.,12.0,0.,12.0,0.,12.0,0.,12.0
1979-07-28 04:17:23.910 ,5,0,0.,12.0,0.,12.0,0.,12.0,0.,12.0
1979-07-28 04:17:35.910 ,6,1,0.,12.0,0.,12.0,0.,12.0,0.,12.0
1979-07-28 04:17:47.910 ,6,1,0.,12.0,0.,12.0,0.,12.0,0.,12.0
1979-07-28 04:17:59.910 ,6,0,0.,12.0,0.,12.0,0.,12.0,0.,12.0